Live-Position
3D-Globus wird geladen...
Über Starlink 1202
Group: 3 satellites
Beschreibung wird geladen...
Nächste Überflüge
Passes for default location (London). Set your location on the main map for personalized predictions.
Höhenverlauf
Loading altitude history...
No altitude history available
Zweizeiliger Elementsatz
1 45183U 20012F 26125.30265941 .00052324 00000-0 16681-2 0 9992
2 45183 53.1552 136.1313 0003176 51.0872 309.0412 15.32040785343624
Epoch: 5. Mai 2026 •
Age: 23 hours
Aktueller Status
Höhe 480.3 km
Geschwindigkeit 7.62 km/s
Subsatellitenpunkt -29.12°S,
20.2°E
Startdatum 17. Feb. 2020
Alter 6.2 years
Typ internet
Startgruppe
Falcon 9 •
Launch 4 •
21 satellites
Starlink 1143
45179
Starlink 1216 45185
Starlink 1225 45187
Starlink 1230 45189
Starlink 1234 45190
Starlink 1269 45197
Starlink 1154 45198
Starlink 1199 45201
Starlink 1209 45206
Starlink 1231 45212
Starlink 1271 45217
Starlink 1191 45222
Starlink 1212 45223
Starlink 1215 45225
Starlink 1221 45227
Starlink 1222 45228
Starlink 1226 45229
Starlink 1227 45230
Starlink 1246 45235
Starlink 1270 45237
Technische Details
Klassifizierung Payload
Masse 260.00 kg
Trockenmasse 248.00 kg
Gesamtmasse 260.00 kg
Länge 0.20 m
Durchmesser 2.80 m
Spannweite 9.00 m
Form Box + pan
Hersteller SPXS
Bus-Typ Starlink
Phasenstatus In Orbit
Besitzer/Staat SPXS/US
Most Searched
Loading...